Location: Oak Glen
(34.0495°N, 116.9470°E)
Time: 23:34:36
(UTC-07:00)

Envisat - Pass Details

Date: 14 October 2017
Orbit: 764 x 766 km, 98.2° (Epoch: 21 October)

Event Time Altitude Azimuth Distance (km) Brightness Sun altitude
Exits shadow 05:38:30 19° 327° (NNW) 1,778 5.3 -37.5°
Drops below altitude 10° 05:39:56 10° 334° (NNW) 2,303 5.9 -37.8°
Sets 05:42:20 0° 341° (NNW) 3,232 6.7 -38.3°
